Location: Hannover
(52.3723°N, 9.7339°E)
Time: 10:38:47
(UTC+02:00)

ISS - Pass Details

Date: 28 March 2019
Orbit: 408 x 410 km, 51.6° (Epoch: 21 April)

Event Time Altitude Azimuth Distance (km) Brightness Sun altitude
Rises 19:17:49 0° 247° (WSW) 2,333 1.1 -5.4°
Reaches altitude 10° 19:19:55 10° 243° (WSW) 1,473 -0.1 -5.7°
Maximum altitude 19:23:10 58° 164° (SSE) 484 -3.6 -6.2°
Drops below altitude 10° 19:26:26 10° 85° (E) 1,476 -1.6 -6.6°
Enters shadow 19:26:51 - 84° (E) 1,651 -1.3 -6.7°
